Regional Weather Roundup
Issued by NWS

Home | Current Version | Previous Version | Graphics & Text | Print | Product List | Glossary On
Versions: 1 2 3 4 5 6 7 8 9 10 11 12 13 14 15 16 17 18 19 20 21 22 23 24 25 26 27 28 29 30 31 32 33 34 35 36 37 38 39 40 41 42 43 44 45 46 47 48 49 50
000
ASUS45 KBOI 020810
RWRID
WEATHER ROUNDUP FOR IDAHO
NATIONAL WEATHER SERVICE BOISE ID
100 AM MST MON MAR 02 2015

NOTE: "FAIR" INDICATES FEW OR NO CLOUDS BELOW 12000 FEET
WITH NO SIGNIFICANT WEATHER AND/OR OBSTRUCTIONS TO VISIBILITY

IDZ012-014-020900-
SOUTHWEST IDAHO


CITY           SKY/WX    TMP DP  RH WIND       PRES   REMARKS
BOISE          CLEAR     32  21  64 SE7       29.94F WCI  26
CALDWELL       CLEAR     27  14  59 E5        29.97F WCI  21
MOUNTAIN HOME  CLEAR     24  18  75 E2        29.95F
$$

IDZ016-017-020900-
SOUTHCENTRAL IDAHO


CITY           SKY/WX    TMP DP  RH WIND       PRES   REMARKS
BURLEY         CLEAR     22  11  62 CALM      29.93F
JEROME         CLEAR     26   6  42 NE13      29.94F WCI  15
TWIN FALLS     CLEAR     25  14  63 S7        29.93F WCI  17
$$

IDZ019>023-020900-
SOUTHEAST IDAHO


CITY           SKY/WX    TMP DP  RH WIND       PRES   REMARKS
IDAHO FALLS    CLEAR     18   8  65 N3        29.96F
POCATELLO      CLEAR     19  10  68 SW5       29.97F WCI  12
REXBURG        CLEAR     15   7  70 NE5       29.97F WCI   8
$$

IDZ006-010-011-018-031-032-020900-
CENTRAL IDAHO MOUNTAINS


CITY           SKY/WX    TMP DP  RH WIND       PRES   REMARKS
MCCALL         CLEAR     20  14  77 CALM      29.91F
HAILEY         CLEAR     25  18  74 NW7       29.97F WCI  17
STANLEY          N/A     14   7  73 CALM      29.92F
SALMON         CLEAR     19  12  73 CALM      29.96F
CHALLIS        CLEAR     19  11  70 CALM      29.94F
$$

IDZ002-004-006-007-026-020900-
NORTHERN IDAHO


CITY           SKY/WX    TMP DP  RH WIND       PRES   REMARKS
LEWISTON       MOCLDY    36  21  54 CALM      29.94F
LOWELL           N/A     28  21  75 N3        30.01F
COEUR D`ALENE  PTCLDY    28  16  59 E5        29.93S WCI  23
MULLAN PASS    CLOUDY    23   2  40 SW6       29.82S WCI  16
$$


USA.gov is the U.S. government's official web portal to all federal, state and local government web resources and services.